Location: Saratoga Springs
(43.0831°N, 73.7850°W)
Time: 07:59:06
(UTC-04:00)

Vanguard 1 Rocket - Pass Details

Date: 17 April 2024
Orbit: 650 x 4220 km, 34.3° (Epoch: 22 May)

Event Time Altitude Azimuth Distance (km) Brightness Sun altitude
Rises 00:10:35 0° 269° (W) 4,312 11.0 -35.3°
Reaches altitude 10° 00:13:04 10° 263° (W) 3,656 10.5 -35.4°
Enters shadow 00:17:40 33° 240° (WSW) 2,833 9.6 -35.6°
Maximum altitude 00:22:24 46° 193° (SSW) 2,838 - -35.8°
Drops below altitude 10° 00:39:46 10° 129° (SE) 6,549 - -36.2°
Exits shadow 00:43:45 - 126° (SE) 7,464 11.7 -36.2°
Sets 00:46:08 0° 125° (SE) 7,993 11.9 -36.2°
